CZ-3C DEB, 40853

Orbit data source: Space-Track

CZ-3C DEB, 40853 is space debris in HEO originally from a launch on Fri, 24 Feb 2012 UTC launched from the Xichang Space Center, China (XSC). Debris objects in space refer to the collection of defunct objects orbiting the Earth. Examples of debris include non-operational satellites, rocket bodies, and fragments generated from explosions, collisions, or faulty payload assembly.

Loading next visibility...
Identifier
40853, 2012-008T
Orbit
HEO
Country
Flag of CNCN / PRC
Related business
Manufacturer
CALT
Mission
Spacecraft
Bus & Motor
Unknown
Mass
Unknown
Launch date (UTC)
2012-02-24 (14 years ago)
Launch vehicle
Unknown
Launch site
Xichang Space Center, China (XSC)
Object type
Payload
Rocket body
Debris
Shape & HBR
Unknown shape, 0.1 m
Radar Cross Section
Medium (>0.1 m² and <1 m²)

Expand to show TLE details & history
Last TLE update: 1 week ago

TLE from 1 week ago
0 CZ-3C DEB
1 40853U 12008T   25288.19694165  .00000052  00000-0  30829-2 0  9998
2 40853  20.6493 126.3959 7044692   2.6108 359.7981  2.27921156 92266
Epoch: 2025-10-15T04:43Z
TLE epoch observation values (Epoch: 2025-10-15T04:43:35.758Z)
Latitude
0.00102°
Longitude
31.54325°
Altitude
847.919 km
Speed
9.694 km/s
True Right ascension
08h 25m 40s
True Declination
0° 00' 04"
Sunlit
Object was in daylight at epoch
Visualization orbit readout
Latitude
Unknown
Longitude
Unknown
Altitude
Unknown
Speed
Unknown
Apparent Right ascension
Unknown
Apparent Declination
Unknown
Sunlit
N/A
Visualization observer readout
Local Sidereal Time
15:33:24
Azimuth
Unknown
Elevation
Unknown
Doppler factor
Unknown
Orbital elements
Apogee altitude
35,200.923 km
Perigee altitude
831.083 km
Semi-major axis
24,394.14 km
Eccentricity
0.70447
Inclination
20.6493°
RAAN
126.3959°
Arg. of periapsis
2.6108°
True anomaly
358.35949°
Mean anomaly
359.7981°
Eccentric anomaly
359.31686°
Mean motion
0.56966 °/min
Orbital period
631.96 mins
BSTAR
0.0030829
Loading maneuver chart data...
Computing Atmospheric mass density...
Loading historical data...
Loading historical data...
Loading historical data...
Loading historical data...
Loading historical data...
Loading historical data...
Loading historical data...

Documentation

Showing up to 5 results
|